Flag for Ukraine Weather past 2 weeks in Luhansk, Ukraine

Now
55 °F

Cloudy.


Feels Like: 53 °F
Forecast: 41 / 51 °F
Wind: 10 mph from West

Location: Rostov-Na-Donu

Current Time: Apr 18, 2015 at 8:35:37 PM

Latest Report: Apr 18, 2015 at 8:00 PM


Visibility: N/A

Pressure: 29.62 "Hg

Humidity: 82%

Dew point: 50 °F

Location of LuhanskLocation

Historic Weather in Luhansk — Graph

°F

Luhansk temperature yesterday

Maximum temperature yesterday: 63 °F (at 3:00 PM)
Minimum temperature yesterday: 46 °F (at 4:00 AM)
Average temperature yesterday: 53 °F

Past Weeks' High & Low Weather Summary

 TemperatureHumidityPressure
High70 °F (Apr 18, 3:00 PM)100% (Apr 6, 3:00 AM)30.18 "Hg (Apr 6, 3:00 AM)
Low34 °F (Apr 6, 3:00 AM)28% (Apr 10, 3:00 PM)29.56 "Hg (Apr 18, 3:00 PM)
Average47 °F68%29.95 "Hg
* Reported Apr 3 7:00 PM — Apr 18 7:00 PM, Luhansk, Weather by CustomWeather, © 2015

Note: Actual official high and low records may vary slightly from our data, if they occured in-between our weather recording intervals... More about our weather records

Advertising

Luhansk weather history for previous 24 hours

 ConditionsComfort  
Time TempWeatherWind HumidityBarometerVisibility
7:00 PM
Sat, Apr 18
59 °FBroken clouds.20 mph77%29.59 "HgN/A
6:00 PM61 °FPartly sunny.20 mph72%29.56 "HgN/A
5:00 PM64 °FPartly sunny.22 mph60%29.56 "HgN/A
4:00 PM66 °FBroken clouds.22 mph56%29.56 "HgN/A
3:00 PM70 °FPartly sunny.31 mph46%29.56 "HgN/A
2:00 PM68 °FPartly sunny.24 mph46%29.59 "HgN/A
1:00 PM68 °FPartly sunny.24 mph49%29.62 "HgN/A
12:00 PM66 °FPartly sunny.17 mph49%29.62 "HgN/A
11:00 AM63 °FPartly sunny.22 mph52%29.65 "HgN/A
10:00 AM64 °FSunny.22 mph49%29.68 "Hg10 mi
9:00 AM57 °FSunny.17 mph59%29.68 "Hg10 mi
8:30 AM55 °FSunny.13 mph63%29.71 "Hg10 mi
8:00 AM54 °FSunny.13 mph72%29.71 "Hg10 mi
7:30 AM54 °FSunny.10 mph67%29.74 "Hg10 mi
7:00 AM50 °FSunny.8 mph76%29.74 "Hg10 mi
6:00 AM50 °FClear.10 mph76%29.74 "Hg10 mi
5:30 AM50 °FClear.13 mph76%29.77 "Hg10 mi
5:00 AM50 °FClear.15 mph76%29.77 "HgN/A
4:30 AM50 °FClear.15 mph76%29.77 "HgN/A
4:00 AM50 °FClear.15 mph76%29.77 "HgN/A
3:30 AM50 °FClear.13 mph76%29.80 "HgN/A
3:00 AM50 °FClear.13 mph76%29.80 "HgN/A
2:30 AM50 °FClear.13 mph76%29.80 "HgN/A
2:00 AM50 °FClear.15 mph76%29.80 "HgN/A
1:30 AM52 °FClear.10 mph72%29.83 "HgN/A
1:00 AM52 °FClear.10 mph72%29.83 "HgN/A
12:30 AM52 °FClear.13 mph72%29.83 "HgN/A
12:00 AM54 °FClear.13 mph67%29.86 "HgN/A
11:30 PM
Fri, Apr 17
54 °FClear.10 mph67%29.86 "HgN/A
11:00 PM55 °FClear.8 mph63%29.86 "HgN/A
10:30 PM55 °FClear.8 mph63%29.86 "HgN/A
10:00 PM55 °FClear.8 mph63%29.86 "HgN/A
9:30 PM55 °FClear.8 mph63%29.86 "HgN/A
9:00 PM55 °FClear.8 mph63%29.86 "HgN/A
8:30 PM55 °FPassing clouds.10 mph63%29.86 "HgN/A
8:00 PM57 °FPartly sunny.10 mph59%29.86 "HgN/A
Weather by CustomWeather, © 2015

See weather overviewHow to use our weather pages